DW2659 Weather Reports


time (UTC)temp
F
wind
direction
speed
knots
gust
knots
rain 1hr
in
rain 24hr
in
rain mn
in
humidity
%
barometer
mb
20260506215903 65 241 0.0 0.0 0.00 0.77 0.77 86 1011.1
20260506215403 66 241 0.0 0.0 0.00 0.77 0.77 86 1011.1
20260506214904 66 241 0.0 0.0 0.00 0.77 0.77 86 1011.1
20260506214403 66 241 0.0 0.0 0.00 0.77 0.77 87 1011.1
20260506213903 66 241 0.0 1.7 0.01 0.77 0.77 86 1011.1
20260506212903 66 241 0.0 0.9 0.05 0.77 0.77 86 1011.6
20260506212403 66 241 0.0 0.0 0.07 0.77 0.77 87 1011.6
20260506211905 66 241 0.0 0.0 0.07 0.77 0.77 87 1011.6
20260506211403 66 241 0.0 0.9 0.07 0.77 0.77 86 1011.5
20260506210903 65 241 0.9 1.7 0.09 0.77 0.77 86 1011.5
20260506210405 65 208 0.9 1.7 0.10 0.77 0.77 86 1011.5
20260506205903 65 195 0.0 4.3 0.11 0.77 0.77 86 1011.9
20260506205403 65 240 1.7 5.2 0.11 0.77 0.77 85 1011.9
20260506204904 65 200 2.6 6.1 0.11 0.77 0.77 85 1011.9
20260506204403 65 122 2.6 5.2 0.15 0.77 0.77 85 1012.1
20260506203903 65 148 1.7 4.3 0.16 0.76 0.76 85 1012.1
20260506203404 65 165 1.7 5.2 0.24 0.75 0.75 85 1012.1
20260506202904 65 259 1.7 2.6 0.51 0.72 0.72 85 1012.2
20260506202404 65 191 1.7 2.6 0.53 0.70 0.70 84 1012.2
20260506201904 65 213 1.7 7.0 0.53 0.70 0.70 85 1012.2
20260506201403 65 189 2.6 6.1 0.53 0.70 0.70 85 1012.5
20260506200904 66 240 1.7 6.1 0.51 0.68 0.68 85 1012.5
20260506200405 66 186 2.6 6.1 0.50 0.67 0.67 85 1012.2
20260506195903 66 218 3.5 7.0 0.49 0.66 0.66 85 1012.2
20260506195403 66 266 3.5 7.0 0.49 0.66 0.66 85 1012.2
20260506194904 66 192 1.7 2.6 0.49 0.66 0.66 85 1012.2
20260506194403 66 147 2.6 5.2 0.45 0.62 0.62 85 1012.7
20260506193903 66 256 2.6 4.3 0.43 0.60 0.60 84 1013.5
20260506192903 67 290 2.6 10.4 0.04 0.21 0.21 82 1012.3
20260506192403 69 11 0.9 2.6 0.00 0.17 0.17 84 1012.3
20260506191903 69 321 0.0 1.7 0.00 0.17 0.17 85 1012.3
20260506190903 69 198 0.0 0.9 0.00 0.17 0.17 85 1012.6
20260506190403 69 198 0.0 0.0 0.00 0.17 0.17 85 1012.6
20260506185904 70 198 0.0 0.0 0.00 0.17 0.17 85 1012.6
20260506185403 70 198 0.0 0.0 0.00 0.17 0.17 84 1012.6
20260506184904 70 198 0.0 0.9 0.00 0.17 0.17 84 1012.6
20260506184404 70 198 0.0 0.0 0.00 0.17 0.17 84 1012.8
20260506183903 70 198 0.0 0.0 0.00 0.17 0.17 83 1012.8
20260506182904 71 198 0.0 0.9 0.00 0.17 0.17 83 1013.0
20260506182403 70 198 0.0 0.0 0.00 0.17 0.17 83 1013.1
20260506181904 70 198 0.0 0.9 0.00 0.17 0.17 82 1013.3
20260506181404 70 164 0.9 1.7 0.00 0.17 0.17 82 1013.3
20260506180904 70 196 0.0 1.7 0.00 0.17 0.17 82 1013.3
20260506180403 70 238 0.9 2.6 0.00 0.17 0.17 82 1013.3
20260506175903 70 136 0.9 1.7 0.00 0.17 0.17 82 1013.3
20260506175404 70 213 0.9 1.7 0.00 0.17 0.17 82 1013.3
20260506174904 70 251 0.9 2.6 0.00 0.17 0.17 82 1013.3
20260506174403 70 233 0.9 2.6 0.00 0.17 0.17 81 1013.4
20260506173904 70 236 0.9 2.6 0.00 0.17 0.17 81 1013.4
20260506173403 70 251 0.0 2.6 0.00 0.17 0.17 82 1013.4
20260506172904 70 253 2.6 5.2 0.00 0.17 0.17 81 1013.0
20260506172405 69 227 1.7 4.3 0.00 0.17 0.17 82 1013.0
20260506171903 69 226 2.6 5.2 0.00 0.17 0.17 82 1013.0
20260506171403 69 203 1.7 6.1 0.00 0.17 0.17 82 1013.0
20260506170904 69 194 3.5 10.4 0.00 0.17 0.17 83 1013.0
20260506170404 68 227 1.7 6.1 0.00 0.17 0.17 83 1013.0
20260506165904 68 242 2.6 5.2 0.00 0.17 0.17 83 1013.1
20260506165405 68 199 1.7 5.2 0.00 0.17 0.17 83 1013.1
20260506164903 68 191 2.6 6.1 0.00 0.17 0.17 83 1013.1
20260506163905 68 215 2.6 7.8 0.00 0.17 0.17 83 1013.1
20260506163404 67 224 3.5 7.0 0.00 0.17 0.17 83 1013.1
20260506162404 67 175 2.6 11.3 0.00 0.17 0.17 84 1013.2
20260506161903 67 177 1.7 7.0 0.00 0.17 0.17 85 1013.2
20260506160905 67 220 2.6 7.8 0.00 0.17 0.17 85 1013.2
20260506160404 67 284 1.7 2.6 0.01 0.17 0.17 85 1013.2
20260506155903 67 110 1.7 5.2 0.03 0.17 0.17 85 1013.4
20260506155404 67 231 1.7 4.3 0.04 0.17 0.17 85 1013.4
20260506154904 66 140 2.6 7.0 0.06 0.17 0.17 85 1013.4
20260506153904 67 239 0.9 4.3 0.09 0.17 0.17 86 1013.4
20260506152903 66 260 1.7 2.6 0.12 0.17 0.17 87 1012.6
20260506152405 66 5 0.0 0.0 0.12 0.17 0.17 86 1013.1
20260506151903 66 5 0.9 2.6 0.13 0.17 0.17 86 1013.1
20260506151403 66 340 0.0 1.7 0.13 0.17 0.17 86 1013.9
20260506150905 65 227 1.7 6.1 0.14 0.17 0.17 85 1013.9
20260506150404 65 235 1.7 10.4 0.13 0.16 0.16 85 1013.6
20260506145903 65 218 2.6 6.1 0.11 0.14 0.14 85 1014.5
20260506145405 65 235 2.6 5.2 0.10 0.13 0.13 84 1014.7
20260506144903 65 159 2.6 6.1 0.08 0.11 0.11 84 1014.7
20260506143904 65 233 0.9 6.1 0.07 0.08 0.08 84 1014.2
20260506143403 65 236 5.2 10.4 0.06 0.07 0.07 84 1014.2
20260506142904 65 250 0.9 2.6 0.04 0.05 0.05 84 1013.8
20260506142406 65 179 0.9 1.7 0.05 0.05 0.05 84 1013.8
20260506141903 65 179 0.9 1.7 0.04 0.04 0.04 84 1013.8
20260506140904 65 257 0.9 2.6 0.03 0.03 0.03 83 1013.5
20260506135905 65 276 0.9 1.7 0.03 0.03 0.03 83 1013.5
20260506134904 65 193 0.0 1.7 0.03 0.03 0.03 82 1013.5
20260506134405 65 269 0.0 0.9 0.03 0.03 0.03 82 1013.4
20260506133903 65 269 0.0 0.9 0.01 0.01 0.01 80 1013.4
20260506133405 65 269 0.0 0.9 0.01 0.01 0.01 80 1013.4
20260506132904 66 269 0.0 2.6 0.01 0.01 0.01 78 1013.2
20260506132404 66 194 0.9 1.7 0.00 0.00 0.00 76 1013.2
20260506131903 66 194 0.0 1.7 0.00 0.00 0.00 76 1013.2
20260506131405 66 185 0.9 2.6 0.00 0.00 0.00 75 1012.8
20260506130903 66 230 0.0 0.9 0.00 0.00 0.00 74 1012.8
20260506130404 66 257 0.0 1.7 0.00 0.00 0.00 73 1012.8
20260506125404 66 156 1.7 4.3 0.00 0.00 0.00 73 1012.8
20260506123904 66 232 3.5 6.1 0.00 0.00 0.00 72 1012.6
20260506123405 66 166 1.7 4.3 0.00 0.00 0.00 72 1012.2
20260506122903 66 236 1.7 2.6 0.00 0.00 0.00 72 1012.2
20260506122404 66 227 1.7 4.3 0.00 0.00 0.00 72 1012.2
20260506121905 66 225 1.7 5.2 0.00 0.00 0.00 72 1012.2
20260506121404 66 232 1.7 4.3 0.00 0.00 0.00 72 1012.3
20260506120903 66 175 2.6 7.0 0.00 0.00 0.00 72 1012.3
20260506115904 66 250 0.9 4.3 0.00 0.00 0.00 72 1012.0
20260506115404 66 227 2.6 4.3 0.00 0.00 0.00 72 1012.0
20260506114904 66 239 1.7 6.1 0.00 0.00 0.00 72 1012.0
20260506114405 66 211 1.7 6.1 0.00 0.00 0.00 72 1012.2
20260506113904 66 214 1.7 4.3 0.00 0.00 0.00 71 1012.2
20260506113404 66 242 1.7 2.6 0.00 0.00 0.00 71 1012.3
20260506112905 66 247 1.7 2.6 0.00 0.00 0.00 71 1012.0
20260506112404 66 263 0.9 2.6 0.00 0.00 0.00 70 1012.0
20260506111904 66 221 2.6 4.3 0.00 0.00 0.00 70 1012.0
20260506111404 66 186 2.6 6.1 0.00 0.00 0.00 70 1011.4
20260506110904 66 240 2.6 6.1 0.00 0.00 0.00 70 1011.4
20260506110404 66 219 2.6 5.2 0.00 0.00 0.00 70 1011.4
20260506105404 67 188 2.6 6.1 0.00 0.00 0.00 69 1011.4
20260506104904 67 237 1.7 2.6 0.00 0.00 0.00 69 1011.4
20260506103905 67 216 1.7 2.6 0.00 0.00 0.00 69 1011.2
20260506103404 67 248 1.7 2.6 0.00 0.00 0.00 69 1011.2
20260506102904 67 200 0.9 2.6 0.00 0.00 0.00 69 1011.4
20260506102405 67 147 0.9 2.6 0.00 0.00 0.00 69 1011.4
20260506101903 67 249 1.7 2.6 0.00 0.00 0.00 69 1011.4
20260506100905 67 167 0.0 1.7 0.00 0.00 0.00 68 1011.7
20260506100404 67 232 0.9 1.7 0.00 0.00 0.00 68 1011.7
20260506095904 67 232 0.0 0.9 0.00 0.00 0.00 68 1011.4
20260506095404 67 232 0.9 1.7 0.00 0.00 0.00 68 1011.4
20260506094904 67 225 0.9 2.6 0.00 0.00 0.00 67 1011.4
20260506094404 67 186 0.9 2.6 0.00 0.00 0.00 67 1010.8
20260506093905 67 265 0.0 2.6 0.00 0.00 0.00 67 1010.8
20260506093404 67 240 0.9 1.7 0.00 0.00 0.00 67 1010.8
20260506092405 67 190 0.9 1.7 0.00 0.00 0.00 66 1010.8
20260506091904 67 230 1.7 2.6 0.00 0.00 0.00 65 1010.8
20260506091404 67 225 0.9 2.6 0.00 0.00 0.00 65 1010.9
20260506090905 67 165 1.7 2.6 0.00 0.00 0.00 65 1010.9
20260506090404 67 211 1.7 2.6 0.00 0.00 0.00 65 1010.9
20260506085904 67 179 1.7 4.3 0.00 0.00 0.00 64 1010.8
20260506085405 67 218 1.7 2.6 0.00 0.00 0.00 64 1010.8
20260506084905 67 238 0.9 1.7 0.00 0.00 0.00 64 1010.8
20260506084404 67 250 1.7 4.3 0.00 0.00 0.00 64 1010.8
20260506083905 67 232 1.7 2.6 0.00 0.00 0.00 64 1010.8
20260506083404 67 243 0.9 2.6 0.00 0.00 0.00 63 1010.8
20260506082904 67 252 0.9 4.3 0.00 0.00 0.00 63 1010.9
20260506082405 67 228 1.7 7.0 0.00 0.00 0.00 62 1010.9
20260506081904 67 206 1.7 5.2 0.00 0.00 0.00 62 1010.9
20260506081404 67 216 1.7 4.3 0.00 0.00 0.00 62 1010.7
20260506080905 67 226 3.5 7.0 0.00 0.00 0.00 61 1010.7
20260506080404 67 234 2.6 6.1 0.00 0.00 0.00 61 1010.7
20260506073404 67 200 2.6 5.2 0.00 0.00 0.00 59 1010.6
20260506072904 67 214 2.6 8.7 0.00 0.00 0.00 59 1010.6
20260506072405 67 214 4.3 8.7 0.00 0.00 0.00 59 1010.6
20260506071904 68 241 2.6 7.0 0.00 0.00 0.00 58 1010.6
20260506071404 68 224 2.6 7.0 0.00 0.00 0.00 58 1010.8
20260506070404 68 193 2.6 4.3 0.00 0.00 0.00 57 1010.8
20260506062402 68 177 0.9 2.6 0.00 0.00 0.00 55 1011.4
20260506061903 68 200 0.9 5.2 0.00 0.00 0.00 54 1011.4
20260506061402 69 136 2.6 5.2 0.00 0.00 0.00 54 1011.4
20260506060902 69 160 2.6 4.3 0.00 0.00 0.00 53 1011.4
20260506060404 69 219 1.7 6.1 0.00 0.00 0.00 53 1011.4
20260506051403 70 171 1.7 4.3 0.00 0.00 0.00 51 1011.8
20260506050903 70 225 1.7 4.3 0.00 0.00 0.00 51 1011.8
20260506050404 70 220 1.7 5.2 0.00 0.00 0.00 51 1011.8
20260506044903 70 173 0.9 2.6 0.00 0.00 0.00 51 1011.7
20260506044403 70 143 0.9 1.7 0.00 0.00 0.00 51 1011.7
20260506043403 70 215 1.7 2.6 0.00 0.00 0.00 50 1011.7
20260506042903 70 181 0.9 2.6 0.00 0.00 0.00 50 1011.7
20260506041403 70 217 0.9 2.6 0.00 0.00 0.00 50 1011.9
20260506040403 70 226 1.7 2.6 0.00 0.00 0.00 50 1011.9
20260506035902 70 215 1.7 2.6 0.00 0.00 0.00 49 1011.8
20260506034904 70 172 0.9 2.6 0.00 0.00 0.00 49 1011.8
20260506034402 71 232 1.7 2.6 0.00 0.00 0.00 49 1011.8
20260506033903 71 222 0.9 2.6 0.00 0.00 0.00 49 1011.8
20260506033404 71 234 1.7 2.6 0.00 0.00 0.00 48 1011.8
20260506032903 71 198 1.7 2.6 0.00 0.00 0.00 47 1011.6
20260506032403 71 191 1.7 4.3 0.00 0.00 0.00 47 1011.6
20260506031402 71 189 0.0 1.7 0.00 0.00 0.00 47 1012.0
20260506030903 71 199 0.9 2.6 0.00 0.00 0.00 47 1012.0
20260506030404 71 171 0.0 1.7 0.00 0.00 0.00 47 1012.0
20260506025903 71 119 0.9 2.6 0.00 0.00 0.00 46 1012.0
20260506025402 71 247 1.7 4.3 0.00 0.00 0.00 46 1012.1
20260506024903 71 200 1.7 4.3 0.00 0.00 0.00 46 1012.1
20260506023903 71 172 2.6 5.2 0.00 0.00 0.00 45 1011.9
20260506023403 71 222 1.7 2.6 0.00 0.00 0.00 45 1011.9
20260506022403 72 244 0.9 2.6 0.00 0.00 0.00 45 1011.9
20260506021904 72 235 1.7 4.3 0.00 0.00 0.00 44 1011.8
20260506021403 72 146 0.9 1.7 0.00 0.00 0.00 44 1011.7
20260506020903 72 144 1.7 4.3 0.00 0.00 0.00 44 1011.7
20260506015902 72 186 1.7 4.3 0.00 0.00 0.00 43 1011.6
20260506015403 72 157 1.7 2.6 0.00 0.00 0.00 43 1011.6
20260506014904 72 164 1.7 5.2 0.00 0.00 0.00 43 1011.6
20260506014403 72 218 2.6 5.2 0.00 0.00 0.00 42 1011.4
20260506013903 72 187 1.7 4.3 0.00 0.00 0.00 42 1011.4
20260506013403 73 223 1.7 6.1 0.00 0.00 0.00 42 1011.4
20260506012903 73 180 1.7 2.6 0.00 0.00 0.00 42 1011.5
20260506012402 73 167 0.9 2.6 0.00 0.00 0.00 42 1011.5
20260506010903 73 192 1.7 2.6 0.00 0.00 0.00 41 1011.3
20260506010404 73 193 1.7 5.2 0.00 0.00 0.00 41 1011.4
20260506005903 73 207 1.7 5.2 0.00 0.00 0.00 41 1011.4
20260506005403 73 248 0.9 4.3 0.00 0.00 0.00 41 1011.4
20260506004904 73 217 1.7 4.3 0.00 0.00 0.00 41 1011.4
20260506004403 73 172 1.7 5.2 0.00 0.00 0.00 41 1011.3
20260506002903 73 234 1.7 5.2 0.00 0.00 0.00 41 1011.3
20260506002403 73 219 2.6 4.3 0.00 0.00 0.00 41 1011.2
20260506001904 73 232 1.7 4.3 0.00 0.00 0.00 41 1011.2
20260506001403 73 203 1.7 4.3 0.00 0.00 0.00 41 1011.1
20260506000903 73 234 1.7 5.2 0.00 0.00 0.00 40 1011.1
20260506000404 73 240 1.7 4.3 0.00 0.00 0.00 40 1011.1
20260505235403 74 194 2.6 6.1 0.00 0.00 0.00 40 1011.4
20260505234904 74 207 2.6 5.2 0.00 0.00 0.00 40 1011.4
20260505234403 74 237 2.6 6.1 0.00 0.00 0.00 40 1011.4
20260505232903 74 236 3.5 8.7 0.00 0.00 0.00 38 1011.3
20260505232403 75 223 4.3 7.8 0.00 0.00 0.00 37 1011.3
20260505231904 75 229 4.3 8.7 0.00 0.00 0.00 38 1011.3
20260505231403 75 245 4.3 7.8 0.00 0.00 0.00 38 1011.3
20260505225402 75 242 2.6 7.8 0.00 0.00 0.00 37 1011.3
20260505224904 75 201 4.3 10.4 0.00 0.00 0.00 36 1011.3
20260505224403 75 143 5.2 7.8 0.00 0.00 0.00 36 1011.2
20260505223404 76 152 4.3 7.8 0.00 0.00 0.00 36 1011.3
20260505222902 75 169 2.6 7.0 0.00 0.00 0.00 35 1011.4
20260505222403 76 238 2.6 7.0 0.00 0.00 0.00 36 1011.4
20260505221904 76 201 1.7 6.1 0.00 0.00 0.00 36 1011.4
20260505221403 75 236 2.6 5.2 0.00 0.00 0.00 35 1011.4
20260505220903 75 187 2.6 6.1 0.00 0.00 0.00 36 1011.4